Location: Burzi?i
(45.0869°N, 16.0577°E)
Time: 11:45:36
(UTC+00:00)

Cosmos 2058 - Pass Details

Date: 29 October 2020
Orbit: 562 x 584 km, 82.5° (Epoch: 27 November)

Event Time Altitude Azimuth Distance (km) Brightness Sun altitude
Rises 17:29:52 0° 349° (N) 2,765 6.5 -18.6°
Reaches altitude 10° 17:32:03 10° 348° (NNW) 1,864 5.6 -18.9°
Maximum altitude 17:36:09 73° 264° (W) 593 3.0 -19.7°
Drops below altitude 10° 17:40:13 10° 179° (S) 1,853 5.5 -20.4°
Sets 17:42:23 0° 178° (S) 2,747 6.4 -20.8°
